Flag for U.S.A. Weather past 2 weeks in Providence, Rhode Island, U.S.A.

Now
50 °F

Passing clouds.


Feels Like: 45 °F
Forecast: 44 / 61 °F
Wind: 13 mph from North

Location: Green State Airport

Current Time: Sep 19, 2014 at 8:41:41 AM

Latest Report: Sep 19, 2014 at 7:51 AM


Visibility: 10 mi

Pressure: 30.33 "Hg

Humidity: 61%

Dew point: 37 °F

Location of ProvidenceLocation

Historic Weather in Providence — Graph

°F

Providence temperature yesterday

Maximum temperature yesterday: 76 °F (at 1:51 PM)
Minimum temperature yesterday: 49 °F (at 6:51 AM)
Average temperature yesterday: 63 °F

Past Weeks' High & Low Weather Summary

 TemperatureHumidityPressure
High89 °F (Sep 6, 2:51 PM)97% (Sep 5, 5:51 AM)30.36 "Hg (Sep 5, 5:51 AM)
Low48 °F (Sep 15, 6:51 AM)33% (Sep 4, 3:51 PM)29.79 "Hg (Sep 6, 4:51 PM)
Average66 °F69%30.10 "Hg
* Reported Sep 4 6:51 AM — Sep 19 6:51 AM, Providence, Weather by CustomWeather, © 2014

Note: Actual official high and low records may vary slightly from our data, if they occured in-between our weather recording intervals... More about our weather records

Advertising

Providence weather history for previous 24 hours

 ConditionsComfort  
Time TempWeatherWind HumidityBarometerVisibility
6:51 AM
Sep 19
49 °FPassing clouds.13 mph64%30.29 "Hg10 mi
5:51 AM50 °FPartly cloudy.13 mph63%30.27 "Hg10 mi
4:51 AM51 °FPassing clouds.13 mph63%30.23 "Hg10 mi
3:51 AM52 °FPassing clouds.12 mph61%30.21 "Hg10 mi
2:51 AM53 °FPassing clouds.12 mph61%30.19 "Hg10 mi
1:51 AM55 °FClear.13 mph62%30.17 "Hg10 mi
12:51 AM57 °FPassing clouds.13 mph64%30.14 "Hg10 mi
11:51 PM
Sep 18
61 °FPassing clouds.15 mph60%30.11 "Hg10 mi
10:51 PM63 °FPassing clouds.13 mph60%30.09 "Hg10 mi
9:51 PM65 °FPartly cloudy.12 mph54%30.07 "Hg10 mi
8:51 PM65 °FPassing clouds.6 mph56%30.05 "Hg10 mi
7:51 PM67 °FPassing clouds.6 mph51%30.02 "Hg10 mi
6:51 PM69 °FPassing clouds.6 mph47%30.00 "Hg10 mi
5:51 PM73 °FPassing clouds.10 mph38%29.98 "Hg10 mi
4:51 PM75 °FPassing clouds.10 mph34%29.96 "Hg10 mi
3:51 PM75 °FPassing clouds.14 mph36%29.96 "Hg10 mi
2:51 PM76 °FBroken clouds.8 mph33%29.95 "Hg10 mi
1:51 PM76 °FPassing clouds.7 mph33%29.96 "Hg10 mi
12:51 PM74 °FPassing clouds.7 mph35%29.97 "Hg10 mi
11:51 AM72 °FPassing clouds.7 mph38%29.98 "Hg10 mi
10:51 AM70 °FPassing clouds.12 mph42%29.98 "Hg10 mi
9:51 AM69 °FPassing clouds.8 mph44%29.99 "Hg10 mi
8:51 AM61 °FPassing clouds.No wind62%29.99 "Hg10 mi
Weather by CustomWeather, © 2014

See weather overviewHow to use our weather pages